| time (UTC) | temp F | wind direction | speed MPH | gust MPH | rain 1hr in | rain 24hr in | rain mn in | humidity % | barometer mb |
| 20260508042840 | 46 | 253 | 1.0 | 2.0 | 0.00 | 0.15 | 0.00 | 99 | 1014.7 |
| 20260508041840 | 46 | 300 | 1.0 | 2.0 | 0.00 | 0.15 | 0.00 | 99 | 1014.7 |
| 20260508040840 | 46 | 308 | 1.0 | 2.0 | 0.00 | 0.15 | 0.00 | 99 | 1014.7 |
| 20260508035830 | 46 | 276 | 1.0 | 2.0 | 0.00 | 0.15 | 0.00 | 98 | 1014.6 |
| 20260508034829 | 46 | 5 | 1.0 | 3.0 | 0.00 | 0.15 | 0.00 | 98 | 1014.6 |
| 20260508033829 | 46 | 43 | 1.0 | 3.0 | 0.00 | 0.15 | 0.00 | 98 | 1014.6 |
| 20260508032829 | 46 | 7 | 1.0 | 2.0 | 0.01 | 0.15 | 0.00 | 97 | 1014.6 |
| 20260508031829 | 46 | 270 | 2.0 | 3.0 | 0.01 | 0.15 | 0.00 | 97 | 1014.6 |
| 20260508030829 | 46 | 317 | 1.0 | 2.0 | 0.01 | 0.15 | 0.00 | 97 | 1014.6 |
| 20260508025829 | 47 | 280 | 1.0 | 2.0 | 0.01 | 0.15 | 0.15 | 97 | 1014.7 |
| 20260508024829 | 47 | 26 | 1.0 | 2.0 | 0.01 | 0.15 | 0.15 | 97 | 1014.7 |
| 20260508023829 | 47 | 286 | 1.0 | 1.0 | 0.01 | 0.15 | 0.15 | 96 | 1014.7 |
| 20260508022829 | 48 | 9 | 1.0 | 3.0 | 0.00 | 0.14 | 0.14 | 96 | 1014.7 |
| 20260508021829 | 48 | 333 | 1.0 | 2.0 | 0.00 | 0.14 | 0.14 | 96 | 1014.6 |
| 20260508020828 | 48 | 320 | 1.0 | 1.0 | 0.00 | 0.14 | 0.14 | 96 | 1014.7 |
| 20260508015829 | 48 | 207 | 1.0 | 1.0 | 0.00 | 0.14 | 0.14 | 96 | 1014.7 |
| 20260508014829 | 48 | 252 | 1.0 | 3.0 | 0.00 | 0.14 | 0.14 | 95 | 1014.7 |
| 20260508013829 | 48 | 333 | 1.0 | 3.0 | 0.00 | 0.14 | 0.14 | 95 | 1014.8 |
| 20260508012828 | 48 | 328 | 1.0 | 5.0 | 0.00 | 0.14 | 0.14 | 95 | 1014.7 |
| 20260508011828 | 48 | 299 | 1.0 | 3.0 | 0.00 | 0.14 | 0.14 | 95 | 1014.8 |
| 20260508010829 | 48 | 322 | 2.0 | 3.0 | 0.00 | 0.14 | 0.14 | 95 | 1014.9 |
| 20260508005828 | 48 | 321 | 2.0 | 4.0 | 0.00 | 0.14 | 0.14 | 95 | 1014.9 |
| 20260508004828 | 48 | 317 | 2.0 | 4.0 | 0.00 | 0.14 | 0.14 | 94 | 1014.9 |
| 20260508003828 | 49 | 302 | 0.0 | 1.0 | 0.00 | 0.14 | 0.14 | 94 | 1014.9 |
| 20260508002849 | 49 | 341 | 1.0 | 2.0 | 0.00 | 0.14 | 0.14 | 93 | 1014.9 |
| 20260508001828 | 49 | 33 | 1.0 | 2.0 | 0.00 | 0.14 | 0.14 | 93 | 1014.9 |
| 20260508000828 | 49 | 300 | 1.0 | 1.0 | 0.00 | 0.14 | 0.14 | 93 | 1015.0 |
| 20260507235848 | 49 | 116 | 1.0 | 2.0 | 0.00 | 0.14 | 0.14 | 93 | 1015.0 |
| 20260507234828 | 49 | 5 | 2.0 | 4.0 | 0.01 | 0.14 | 0.14 | 93 | 1015.0 |
| 20260507233828 | 49 | 24 | 2.0 | 3.0 | 0.03 | 0.14 | 0.14 | 93 | 1015.0 |
| 20260507232828 | 49 | 32 | 1.0 | 3.0 | 0.06 | 0.14 | 0.14 | 93 | 1015.0 |
| 20260507231828 | 50 | 127 | 2.0 | 4.0 | 0.09 | 0.14 | 0.14 | 93 | 1015.0 |
| 20260507230829 | 50 | 28 | 2.0 | 3.0 | 0.09 | 0.14 | 0.14 | 92 | 1015.0 |
| 20260507225828 | 50 | 1 | 1.0 | 2.0 | 0.09 | 0.14 | 0.14 | 91 | 1014.9 |
| 20260507224828 | 50 | 28 | 1.0 | 2.0 | 0.12 | 0.13 | 0.13 | 91 | 1014.9 |
| 20260507223848 | 50 | 214 | 3.0 | 6.0 | 0.09 | 0.11 | 0.11 | 90 | 1015.0 |
| 20260507222848 | 49 | 198 | 4.0 | 8.0 | 0.06 | 0.08 | 0.08 | 90 | 1015.0 |
| 20260507221828 | 50 | 248 | 2.0 | 5.0 | 0.04 | 0.05 | 0.05 | 89 | 1015.0 |
| 20260507220827 | 49 | 357 | 1.0 | 2.0 | 0.04 | 0.05 | 0.05 | 88 | 1015.0 |
| 20260507215827 | 49 | 357 | 1.0 | 4.0 | 0.03 | 0.05 | 0.05 | 88 | 1015.0 |
| 20260507214827 | 49 | 321 | 2.0 | 6.0 | 0.00 | 0.02 | 0.02 | 88 | 1014.9 |
| 20260507213828 | 50 | 21 | 2.0 | 3.0 | 0.00 | 0.02 | 0.02 | 88 | 1014.9 |
| 20260507212831 | 50 | 340 | 2.0 | 5.0 | 0.00 | 0.02 | 0.02 | 86 | 1014.8 |
| 20260507211831 | 50 | 358 | 1.0 | 3.0 | 0.00 | 0.02 | 0.02 | 86 | 1014.8 |
| 20260507210831 | 51 | 16 | 2.0 | 3.0 | 0.00 | 0.02 | 0.02 | 85 | 1014.7 |
| 20260507205831 | 51 | 31 | 3.0 | 4.0 | 0.00 | 0.02 | 0.02 | 83 | 1014.7 |
| 20260507204831 | 51 | 30 | 2.0 | 4.0 | 0.00 | 0.02 | 0.02 | 82 | 1014.5 |
| 20260507203832 | 50 | 63 | 1.0 | 3.0 | 0.00 | 0.02 | 0.02 | 82 | 1014.5 |
| 20260507202911 | 50 | 90 | 2.0 | 6.0 | 0.01 | 0.02 | 0.02 | 84 | 1014.4 |
| 20260507201831 | 51 | 41 | 3.0 | 6.0 | 0.02 | 0.02 | 0.02 | 86 | 1014.3 |
| 20260507200831 | 51 | 356 | 3.0 | 5.0 | 0.02 | 0.02 | 0.02 | 84 | 1014.3 |
| 20260507195831 | 51 | 351 | 3.0 | 6.0 | 0.02 | 0.02 | 0.02 | 83 | 1014.3 |
| 20260507194831 | 51 | 334 | 3.0 | 8.0 | 0.02 | 0.02 | 0.02 | 79 | 1014.2 |
| 20260507193831 | 51 | 314 | 3.0 | 5.0 | 0.02 | 0.02 | 0.02 | 74 | 1014.2 |
| 20260507192831 | 52 | 307 | 4.0 | 8.0 | 0.01 | 0.01 | 0.01 | 68 | 1014.2 |
| 20260507191831 | 53 | 208 | 5.0 | 8.0 | 0.00 | 0.00 | 0.00 | 61 | 1014.0 |
| 20260507190831 | 53 | 200 | 4.0 | 8.0 | 0.00 | 0.00 | 0.00 | 63 | 1014.0 |
| 20260507185836 | 53 | 201 | 5.0 | 9.0 | 0.00 | 0.00 | 0.00 | 64 | 1014.0 |
| 20260507184836 | 53 | 206 | 5.0 | 10.0 | 0.00 | 0.00 | 0.00 | 64 | 1013.9 |
| 20260507183830 | 53 | 198 | 6.0 | 9.0 | 0.00 | 0.00 | 0.00 | 63 | 1014.0 |
| 20260507182830 | 53 | 205 | 6.0 | 12.0 | 0.00 | 0.00 | 0.00 | 64 | 1014.0 |
| 20260507181831 | 53 | 207 | 6.0 | 11.0 | 0.00 | 0.00 | 0.00 | 65 | 1014.0 |
| 20260507180851 | 53 | 199 | 7.0 | 14.0 | 0.00 | 0.00 | 0.00 | 65 | 1013.9 |
| 20260507175831 | 53 | 190 | 9.0 | 14.0 | 0.00 | 0.00 | 0.00 | 65 | 1013.9 |
| 20260507174835 | 53 | 190 | 8.0 | 12.0 | 0.00 | 0.00 | 0.00 | 66 | 1013.9 |
| 20260507173831 | 54 | 192 | 8.0 | 15.0 | 0.00 | 0.00 | 0.00 | 64 | 1013.8 |
| 20260507172830 | 55 | 191 | 6.0 | 10.0 | 0.00 | 0.00 | 0.00 | 62 | 1013.8 |
| 20260507171830 | 54 | 218 | 5.0 | 12.0 | 0.00 | 0.00 | 0.00 | 61 | 1013.8 |
| 20260507170830 | 54 | 199 | 6.0 | 13.0 | 0.00 | 0.00 | 0.00 | 62 | 1013.8 |
| 20260507165830 | 54 | 195 | 5.0 | 10.0 | 0.00 | 0.00 | 0.00 | 61 | 1013.9 |
| 20260507164850 | 54 | 203 | 5.0 | 11.0 | 0.00 | 0.00 | 0.00 | 60 | 1014.0 |
| 20260507163850 | 54 | 202 | 7.0 | 14.0 | 0.00 | 0.00 | 0.00 | 59 | 1013.9 |
| 20260507162830 | 54 | 196 | 8.0 | 14.0 | 0.00 | 0.00 | 0.00 | 58 | 1013.8 |
| 20260507161830 | 54 | 188 | 9.0 | 15.0 | 0.00 | 0.00 | 0.00 | 59 | 1013.7 |
| 20260507160830 | 55 | 184 | 9.0 | 14.0 | 0.00 | 0.00 | 0.00 | 58 | 1013.8 |
| 20260507155830 | 54 | 192 | 9.0 | 16.0 | 0.00 | 0.00 | 0.00 | 58 | 1013.7 |
| 20260507154830 | 55 | 196 | 8.0 | 17.0 | 0.00 | 0.00 | 0.00 | 55 | 1013.8 |
| 20260507153830 | 55 | 204 | 8.0 | 16.0 | 0.00 | 0.00 | 0.00 | 50 | 1013.8 |
| 20260507152830 | 55 | 208 | 9.0 | 16.0 | 0.00 | 0.00 | 0.00 | 47 | 1013.8 |
| 20260507151830 | 55 | 194 | 8.0 | 13.0 | 0.00 | 0.00 | 0.00 | 49 | 1013.9 |
| 20260507150850 | 55 | 206 | 8.0 | 18.0 | 0.00 | 0.00 | 0.00 | 48 | 1014.0 |
| 20260507145850 | 55 | 217 | 8.0 | 13.0 | 0.00 | 0.00 | 0.00 | 55 | 1014.0 |
| 20260507144850 | 55 | 204 | 7.0 | 17.0 | 0.00 | 0.00 | 0.00 | 54 | 1014.0 |
| 20260507143834 | 55 | 227 | 6.0 | 11.0 | 0.00 | 0.00 | 0.00 | 55 | 1014.1 |
| 20260507142850 | 53 | 190 | 9.0 | 19.0 | 0.00 | 0.00 | 0.00 | 61 | 1014.2 |
| 20260507141849 | 54 | 186 | 10.0 | 15.0 | 0.00 | 0.00 | 0.00 | 62 | 1014.1 |
| 20260507140830 | 54 | 189 | 9.0 | 17.0 | 0.00 | 0.00 | 0.00 | 61 | 1014.2 |
| 20260507135830 | 53 | 190 | 10.0 | 18.0 | 0.00 | 0.00 | 0.00 | 61 | 1014.2 |
| 20260507134829 | 53 | 191 | 11.0 | 18.0 | 0.00 | 0.00 | 0.00 | 63 | 1014.2 |
| 20260507133830 | 53 | 192 | 12.0 | 20.0 | 0.00 | 0.00 | 0.00 | 66 | 1014.2 |
| 20260507132830 | 54 | 193 | 9.0 | 15.0 | 0.00 | 0.00 | 0.00 | 63 | 1014.3 |
| 20260507131829 | 53 | 192 | 10.0 | 17.0 | 0.00 | 0.00 | 0.00 | 59 | 1014.2 |
| 20260507130829 | 53 | 189 | 10.0 | 16.0 | 0.00 | 0.00 | 0.00 | 59 | 1014.3 |
| 20260507125829 | 54 | 189 | 9.0 | 16.0 | 0.00 | 0.00 | 0.00 | 58 | 1014.4 |
| 20260507124849 | 54 | 189 | 9.0 | 14.0 | 0.00 | 0.00 | 0.00 | 59 | 1014.4 |
| 20260507123829 | 54 | 197 | 8.0 | 16.0 | 0.00 | 0.00 | 0.00 | 59 | 1014.5 |
| 20260507122849 | 54 | 187 | 9.0 | 16.0 | 0.00 | 0.00 | 0.00 | 60 | 1014.4 |
| 20260507121829 | 53 | 186 | 7.0 | 15.0 | 0.00 | 0.00 | 0.00 | 56 | 1014.4 |
| 20260507120829 | 53 | 191 | 9.0 | 15.0 | 0.00 | 0.00 | 0.00 | 59 | 1014.4 |
| 20260507115829 | 54 | 191 | 9.0 | 14.0 | 0.00 | 0.00 | 0.00 | 58 | 1014.4 |
| 20260507114829 | 53 | 191 | 9.0 | 15.0 | 0.00 | 0.00 | 0.00 | 61 | 1014.4 |
| 20260507113829 | 53 | 192 | 7.0 | 13.0 | 0.00 | 0.00 | 0.00 | 62 | 1014.4 |
| 20260507112829 | 53 | 194 | 8.0 | 15.0 | 0.00 | 0.00 | 0.00 | 65 | 1014.4 |
| 20260507111849 | 53 | 193 | 9.0 | 16.0 | 0.00 | 0.00 | 0.00 | 66 | 1014.4 |
| 20260507110829 | 53 | 190 | 9.0 | 16.0 | 0.00 | 0.00 | 0.00 | 66 | 1014.4 |
| 20260507105829 | 53 | 187 | 9.0 | 15.0 | 0.00 | 0.00 | 0.00 | 62 | 1014.5 |
| 20260507104829 | 53 | 190 | 8.0 | 14.0 | 0.00 | 0.00 | 0.00 | 59 | 1014.5 |
| 20260507103829 | 53 | 193 | 8.0 | 14.0 | 0.00 | 0.00 | 0.00 | 61 | 1014.5 |
| 20260507102829 | 53 | 187 | 8.0 | 15.0 | 0.00 | 0.00 | 0.00 | 59 | 1014.5 |
| 20260507101829 | 53 | 179 | 7.0 | 12.0 | 0.00 | 0.00 | 0.00 | 61 | 1014.4 |
| 20260507100829 | 53 | 191 | 9.0 | 15.0 | 0.00 | 0.00 | 0.00 | 60 | 1014.4 |
| 20260507095829 | 52 | 192 | 7.0 | 13.0 | 0.00 | 0.00 | 0.00 | 64 | 1014.4 |
| 20260507094828 | 53 | 183 | 9.0 | 14.0 | 0.00 | 0.00 | 0.00 | 63 | 1014.3 |
| 20260507093829 | 52 | 188 | 9.0 | 15.0 | 0.00 | 0.00 | 0.00 | 64 | 1014.3 |
| 20260507092828 | 52 | 183 | 7.0 | 11.0 | 0.00 | 0.00 | 0.00 | 66 | 1014.3 |
| 20260507091829 | 52 | 178 | 5.0 | 8.0 | 0.00 | 0.00 | 0.00 | 68 | 1014.4 |
| 20260507090828 | 51 | 169 | 4.0 | 7.0 | 0.00 | 0.00 | 0.00 | 70 | 1014.4 |
| 20260507085828 | 51 | 148 | 4.0 | 7.0 | 0.00 | 0.00 | 0.00 | 73 | 1014.5 |
| 20260507084828 | 51 | 124 | 4.0 | 7.0 | 0.00 | 0.00 | 0.00 | 74 | 1014.4 |
| 20260507083828 | 51 | 88 | 5.0 | 9.0 | 0.00 | 0.00 | 0.00 | 75 | 1014.4 |
| 20260507082828 | 51 | 83 | 5.0 | 9.0 | 0.00 | 0.00 | 0.00 | 74 | 1014.4 |
| 20260507081853 | 51 | 110 | 4.0 | 9.0 | 0.00 | 0.00 | 0.00 | 73 | 1014.3 |
| 20260507080828 | 50 | 105 | 5.0 | 8.0 | 0.00 | 0.00 | 0.00 | 73 | 1014.3 |
| 20260507075828 | 51 | 108 | 5.0 | 8.0 | 0.00 | 0.00 | 0.00 | 69 | 1014.4 |
| 20260507074828 | 51 | 109 | 4.0 | 9.0 | 0.00 | 0.00 | 0.00 | 67 | 1014.3 |
| 20260507073828 | 50 | 101 | 3.0 | 7.0 | 0.00 | 0.00 | 0.00 | 69 | 1014.2 |
| 20260507072829 | 49 | 113 | 5.0 | 9.0 | 0.00 | 0.00 | 0.00 | 73 | 1014.3 |
| 20260507071828 | 49 | 102 | 4.0 | 8.0 | 0.00 | 0.00 | 0.00 | 76 | 1014.1 |
| 20260507070828 | 48 | 92 | 5.0 | 9.0 | 0.00 | 0.00 | 0.00 | 80 | 1014.1 |
| 20260507065828 | 48 | 80 | 6.0 | 9.0 | 0.00 | 0.00 | 0.00 | 81 | 1014.1 |
| 20260507064908 | 48 | 67 | 5.0 | 8.0 | 0.00 | 0.00 | 0.00 | 81 | 1014.1 |
| 20260507063828 | 48 | 80 | 3.0 | 5.0 | 0.00 | 0.00 | 0.00 | 81 | 1014.1 |
| 20260507062828 | 47 | 58 | 2.0 | 4.0 | 0.00 | 0.00 | 0.00 | 82 | 1014.0 |
| 20260507061828 | 46 | 37 | 3.0 | 5.0 | 0.00 | 0.00 | 0.00 | 82 | 1014.0 |
| 20260507060828 | 45 | 330 | 2.0 | 4.0 | 0.00 | 0.00 | 0.00 | 83 | 1014.0 |
| 20260507055828 | 45 | 270 | 2.0 | 3.0 | 0.00 | 0.00 | 0.00 | 82 | 1014.0 |
| 20260507054828 | 45 | 268 | 2.0 | 3.0 | 0.00 | 0.00 | 0.00 | 82 | 1013.9 |
| 20260507053828 | 44 | 238 | 3.0 | 5.0 | 0.00 | 0.00 | 0.00 | 81 | 1014.0 |
| 20260507052828 | 45 | 239 | 2.0 | 5.0 | 0.00 | 0.00 | 0.00 | 80 | 1013.9 |
| 20260507051827 | 45 | 70 | 2.0 | 3.0 | 0.00 | 0.00 | 0.00 | 80 | 1013.9 |
| 20260507050827 | 44 | 27 | 2.0 | 3.0 | 0.00 | 0.00 | 0.00 | 79 | 1013.8 |
| 20260507045852 | 44 | 19 | 1.0 | 2.0 | 0.00 | 0.00 | 0.00 | 80 | 1013.8 |
| 20260507044851 | 44 | 29 | 2.0 | 3.0 | 0.00 | 0.00 | 0.00 | 79 | 1013.7 |
| 20260507043831 | 44 | 305 | 1.0 | 3.0 | 0.00 | 0.00 | 0.00 | 78 | 1013.7 |